User: anonymous   Login
Location: Avenches
(46.8809°N, 7.0410°E)
Time: 21:17:02
(UTC+00:00)
Language:

STARLINK-1138 - Orbit

View from above orbital plane
View from above orbital plane
View from above satellite
View from above satellite

Ground track
Ground track

The orbit data is extracted from the following two-line orbital elements,

1 45178U 20012A   20185.66668981 -.00034353  00000-0 -23488-2 0  9993
2 45178  52.9992   1.7600 0001348 112.2921 319.8611 15.05598542 21445
Epoch (UTC): 03 July 2020 16:00:02
Eccentricity: 0.0001348
inclination: 52.9992°
perigee height: 549 km
apogee height: 550 km
right ascension of ascending node: 1.7600°
argument of perigee: 112.2921°
revolutions per day: 15.05598542
mean anomaly at epoch: 319.8611°
orbit number at epoch: 2144

The dashed part of the orbit path shows where the satellite is in the earth's shadow,  

DLR